Regional Weather Roundup
Issued by NWS

Home | Current Version | Previous Version | Graphics & Text | Print | Product List | Glossary On
Versions: 1 2 3 4 5 6 7 8 9 10 11 12 13 14 15 16 17 18 19 20 21 22 23 24 25 26 27 28 29 30 31 32 33 34 35 36 37 38 39 40 41 42 43 44 45 46 47 48 49 50
000
ASUS43 KFSD 250302
RWRSD

WEATHER ROUNDUP FOR SOUTH DAKOTA
NATIONAL WEATHER SERVICE SIOUX FALLS SD
1000 PM CDT TUE APR 24 2018

NOTE: "FAIR" INDICATES FEW OR NO CLOUDS BELOW 12,000 FEET WITH NO
SIGNIFICANT WEATHER AND/OR OBSTRUCTIONS TO VISIBILITY.


SDZ001>005-009-010-012>017-250400-
NORTHWEST AND NORTH CENTRAL SOUTH DAKOTA

CITY           SKY/WX    TMP DP  RH WIND       PRES   REMARKS
BUFFALO          N/A     47  23  38 W3        30.33R
FAITH            N/A     41  33  73 W7        30.38R
MOBRIDGE       CLEAR     45  30  55 E7        30.34R
$$

SDZ012>016-024>037-041>051-057-063-072>074-250400-
SOUTHWEST AND SOUTH CENTRAL SOUTH DAKOTA

CITY           SKY/WX    TMP DP  RH WIND       PRES   REMARKS
RAPID CTY ARPT CLEAR     34  24  67 N6        30.40S WCI  29
PIERRE         CLEAR     35  29  78 N8        30.36R WCI  29
CUSTER         CLEAR     31  18  58 N6        30.38S WCI  25
PHILIP         CLEAR     36  31  82 W5        30.39R
PINE RIDGE     CLOUDY    38  31  76 S3        30.41R
SPEARFISH      FAIR      34  30  86 S12       30.41S WCI  25
WINNER         CLOUDY    41  36  82 W7        30.38R
$$

SDZ004>011-016>023-039-040-250400-
NORTHEAST SOUTH DAKOTA

CITY           SKY/WX    TMP DP  RH WIND       PRES   REMARKS
ABERDEEN       CLEAR     42  30  62 N6        30.35S
WATERTOWN      CLEAR     34  30  85 N8        30.31R WCI  27
BROOKINGS      CLEAR     39  33  79 N6        30.31R
SISSETON         N/A     39  33  79 NW8       30.33R
$$

SDZ017-020-022-023-036>040-048>070-250400-
SOUTHEAST SOUTH DAKOTA

CITY           SKY/WX    TMP DP  RH WIND       PRES   REMARKS
SIOUX FALLS    CLOUDY    46  36  68 N13       30.29R
HURON          CLEAR     43  32  65 N7        30.34R
CHAMBERLAIN    CLOUDY    42  41  98 W7        30.37R
MITCHELL       CLOUDY    44  40  85 NW12      30.34R
YANKTON        LGT RAIN  44  41  89 NW12      30.31R
$$

ABBREVIATIONS USED IN REMARKS
   TC - TEMPERATURE IN CELSIUS
  WCI - WIND CHILL INDEX
   HX - HEAT INDEX
  VSB - VISIBILITY





USA.gov is the U.S. government's official web portal to all federal, state and local government web resources and services.